User: anonymous
Location: Cimarron National Grasslands
(37.1250°N, 101.7500°W)
Time: 05:21:26
(UTC-05:00)
Language:

Ariane Rocket - Orbit

View from above orbital plane
View from above orbital plane
View from above satellite
View from above satellite

Ground track
Ground track

The orbit data is extracted from the following two-line orbital elements,

1 23561U 95021B   14271.95203601  .00000483  00000-0  17717-3 0  8816
2 23561 098.6952 239.1724 0006151 324.9175 085.8177 14.37328172 18687
Epoch (UTC): 28 September 2014 22:50:55
Eccentricity: 0.0006151
inclination: 98.6952°
perigee height: 763 km
apogee height: 772 km
right ascension of ascending node: 239.1724°
argument of perigee: 324.9175°
revolutions per day: 14.37328172
mean anomaly at epoch: 85.8177°
orbit number at epoch: 1868

The dashed part of the orbit path shows where the satellite is in the earth's shadow,  

DLR